Вернуться в каталог

FALCON 9 R/B

АктивенHEO
NORAD 62260·ROCKET BODY·🇺🇸 United States

Запущен Dec 5, 2024 с Cape Canaveral Space Force Station

Loading…

Ближайшие Пролёты (ближайшие 24 часа)

TLE

СвежийSource: Space-Track

Эпоха: Sep 14, 2026, 06:08 UTC

1 62260U 24234B   26257.25610592  .00024948  00000-0  77848-3 0  9997
2 62260  27.2412   5.9463 5757726 296.7122  16.4185  4.49221782 26429

Отслеживайте FALCON 9 R/B в реальном времени с AllMySat

Download on the App Store